Location: Newark
(29.9790°N, 31.1340°E)
Time: 13:18:07
(UTC+00:00)

A-11 Canister half - Pass Details

Date: 01 February 2020
Orbit: 1524 x 1684 km, 47.3° (Epoch: 24 February)

Event Time Altitude Azimuth Distance (km) Brightness Sun altitude
Rises 20:03:59 0° 309° (NW) 4,741 12.0 -58.7°
Reaches altitude 10° 20:07:01 10° 310° (NW) 3,774 11.3 -59.3°
Enters shadow 20:08:19 15° 311° (NW) 3,370 11.0 -59.6°
